Wind_Speed
11 10 10 9 9 9 10 11 12 12 12 12 12 11 10 9 7 6 5 5 5 5 5 6 7 8 8 9 11 11 12 10 7 6 8 6 5 7 5 9 14 17 20 16 13 11 10 9 8 7 6 4 3 1 1 2 3 3 3 3 3 4 3 4 4 3 7 10 10 10 9 8 9 7 5 5 6 8 8 8 9 9 10 14 18 20 20 17
12 11 10 9 9 9 10 11 11 11 11 11 11 11 10 9 7 6 5 4 4 5 5 6 6 7 8 10 12 12 12 8 8 8 8 7 6 7 6 11 14 18 20 15 14 13 10 9 8 9 6 3 1 0 2 1 2 2 2 2 2 5 4 3 3 3 5 10 10 10 9 7 9 9 7 6 8 9 9 10 11 13 14 16 19 19 18 16
11 11 9 8 8 8 9 10 10 10 10 10 10 10 9 8 7 6 5 4 4 4 5 6 6 7 9 11 12 11 10 8 7 2 2 9 6 8 10 12 15 20 18 13 14 11 8 7 8 8 5 3 1 1 2 1 2 1 2 2 4 6 6 5 3 3 3 10 11 9 9 7 8 8 6 5 8 8 8 10 10 13 16 16 17 17 17 15
11 10 9 8 8 8 9 9 9 9 9 9 9 9 8 7 7 6 5 4 4 4 5 6 7 8 10 11 11 10 7 7 2 4 7 9 4 10 12 13 17 21 13 8 10 7 6 7 8 7 4 3 1 2 1 2 3 2 3 3 5 2 5 6 3 3 3 9 11 9 9 8 8 6 6 6 7 6 6 9 9 13 17 17 16 16 16 14
12 10 9 9 8 9 9 9 8 9 8 8 8 8 7 6 6 5 5 5 5 5 5 6 7 9 11 11 10 6 5 4 3 6 9 4 6 11 12 15 19 17 9 8 9 7 7 8 7 6 4 3 1 2 0 3 3 2 2 5 5 1 3 5 3 2 4 8 9 10 9 9 8 6 6 4 3 4 6 8 9 13 16 16 16 16 15 13
13 11 10 9 8 8 8 8 8 8 8 8 8 7 7 6 5 5 4 4 4 4 5 6 7 9 11 11 7 3 5 1 5 6 6 2 7 11 14 17 19 14 9 9 10 8 9 8 8 5 4 3 1 2 2 2 3 2 2 4 4 2 2 4 3 2 5 8 10 10 8 9 8 7 6 3 6 4 6 9 11 13 16 17 16 15 13 12
14 12 10 9 8 8 8 7 8 8 8 9 9 8 7 6 6 5 5 4 4 4 4 6 7 9 12 9 4 5 4 5 6 4 3 5 9 13 16 17 15 12 10 11 11 10 9 9 8 4 4 3 1 2 2 1 4 4 1 3 3 3 2 3 3 1 4 8 8 7 7 9 9 7 6 4 7 6 8 10 12 15 16 16 15 13 12 12
15 13 11 9 8 7 7 7 8 9 10 10 10 10 9 8 7 6 6 5 4 4 4 6 6 9 11 7 4 5 3 7 5 2 4 8 11 15 16 14 10 9 10 11 10 10 9 9 8 4 4 1 2 2 2 3 3 3 2 3 2 2 3 4 3 2 4 6 6 7 8 8 7 7 7 6 8 9 10 11 13 15 15 14 13 13 12 11
16 14 11 9 8 7 7 8 9 10 11 12 12 13 12 11 10 7 6 5 4 4 4 5 5 8 10 6 7 3 6 6 3 5 8 10 11 15 14 11 10 8 8 9 8 8 7 7 7 4 4 3 3 3 1 3 1 1 2 2 2 3 4 6 6 4 3 4 5 8 8 7 6 7 7 7 8 10 11 12 13 14 14 12 12 12 11 10
15 14 12 10 8 7 8 8 9 10 11 12 13 15 15 13 11 8 6 5 5 4 4 5 5 7 7 5 8 2 6 4 4 6 9 10 11 13 11 10 11 9 7 7 8 8 5 4 3 2 4 3 3 2 1 3 1 1 1 2 2 1 4 7 9 2 2 3 3 8 8 7 7 5 5 7 8 11 11 12 13 14 13 11 11 11 10 10
15 14 13 11 9 8 8 8 9 10 11 13 15 16 15 14 11 7 5 4 4 4 4 4 4 6 7 7 6 3 6 3 4 6 8 10 9 9 8 9 11 9 7 6 8 8 4 4 2 3 2 2 2 0 1 2 2 0 2 4 2 3 2 7 11 2 0 2 2 6 8 7 7 3 5 10 10 11 12 12 13 13 11 11 11 10 9 9
14 14 13 12 10 9 9 9 10 11 13 14 15 15 13 12 9 5 3 2 2 3 3 3 4 6 6 7 2 6 6 3 3 6 7 8 7 6 6 8 9 8 6 7 6 6 4 3 4 5 2 3 3 0 1 0 1 2 4 3 5 6 3 9 12 3 2 2 3 4 8 7 8 5 7 11 10 11 11 11 13 12 11 10 10 9 7 8
14 13 13 12 11 10 10 10 11 12 14 14 14 12 10 9 6 3 0 1 1 2 2 3 4 5 6 2 5 5 5 2 3 6 7 7 6 5 6 7 7 6 5 6 4 5 6 3 5 6 4 5 3 2 2 3 3 3 4 3 5 6 3 10 11 5 4 1 4 2 6 7 7 6 9 11 11 12 11 11 11 11 10 10 9 8 7 8
13 13 13 13 12 12 12 12 13 15 15 14 12 9 8 7 4 2 2 1 0 1 2 3 5 4 5 4 5 3 2 2 3 5 8 8 6 5 5 6 6 4 4 3 1 4 8 5 5 6 4 5 1 4 5 4 4 3 1 2 4 4 2 7 9 8 9 3 3 3 3 5 8 8 10 10 11 12 11 11 11 10 10 10 9 8 8 8
14 13 13 13 13 13 13 13 15 17 15 14 11 8 7 6 3 4 3 2 1 1 3 4 4 4 3 6 4 1 1 2 3 4 7 9 6 5 6 6 5 4 4 3 1 3 7 6 6 5 2 2 2 6 5 3 4 3 2 2 3 4 2 6 8 8 8 5 3 4 2 5 8 9 10 10 10 11 10 11 11 11 11 10 9 9 8 9
15 14 13 13 13 14 14 15 16 16 15 13 9 7 8 5 3 4 4 4 1 2 2 2 2 5 1 6 4 2 2 2 3 3 7 7 3 5 8 7 6 5 4 4 3 3 6 7 5 4 2 3 5 6 4 3 5 4 2 2 2 5 5 5 6 4 4 7 5 4 2 3 5 9 10 10 10 10 9 10 11 11 11 10 9 8 8 9
16 14 13 13 13 14 14 15 16 15 14 13 8 7 8 4 4 4 5 4 2 1 1 3 3 5 0 5 4 3 3 2 4 3 6 5 3 8 10 7 7 7 6 5 5 5 6 7 4 3 5 5 5 4 3 4 1 1 2 1 1 4 7 7 6 4 4 6 6 3 1 1 3 8 10 10 11 11 9 10 11 10 10 10 9 9 9 8
16 15 13 12 12 13 13 14 14 12 13 12 7 5 6 4 4 3 3 3 1 2 3 3 4 4 3 5 2 2 3 2 4 4 6 5 5 8 7 5 8 9 8 7 6 7 7 5 4 4 5 4 5 4 2 1 3 3 2 1 2 3 6 7 7 7 7 6 6 5 2 1 3 7 10 10 11 11 9 9 10 10 9 9 9 9 9 9
17 15 13 12 12 12 12 13 12 11 12 11 8 5 3 2 2 1 3 3 1 1 1 0 2 2 5 4 2 3 2 3 4 6 7 7 7 6 4 6 9 9 8 7 7 8 6 5 5 5 5 5 5 3 1 3 4 3 2 2 1 4 4 5 7 7 8 6 5 6 3 2 4 7 9 10 11 10 9 9 8 9 9 9 9 9 9 10
17 15 14 12 11 11 11 12 10 9 10 10 7 4 2 2 0 2 3 5 1 4 3 3 3 2 3 3 2 1 3 5 5 7 9 8 8 7 5 6 8 8 8 7 8 7 5 6 7 5 3 3 3 1 4 5 4 1 1 1 3 6 3 4 7 7 7 5 4 5 4 4 4 5 8 9 10 10 10 10 9 9 9 9 10 10 10 10
17 15 13 11 11 10 10 12 9 7 9 8 5 3 3 7 4 3 3 2 2 2 4 3 4 4 3 2 2 2 2 5 6 8 8 7 8 7 6 6 8 7 7 6 6 5 4 7 6 4 2 2 2 1 3 3 2 2 1 2 2 5 5 5 7 7 5 3 3 4 4 6 6 5 7 9 11 11 11 11 11 11 10 9 10 11 11 10
17 15 13 11 10 10 9 12 7 5 8 5 3 3 5 7 6 4 5 2 3 0 3 2 3 3 1 2 1 3 4 4 8 8 7 7 8 6 5 6 8 6 6 5 4 5 7 8 4 3 2 2 3 3 3 4 3 4 2 2 1 3 5 5 8 9 5 2 3 5 5 5 6 6 7 9 10 10 10 11 10 11 11 9 10 10 11 11
17 15 13 10 10 10 10 11 6 3 8 4 2 5 4 4 6 4 6 4 2 2 2 1 2 1 2 2 2 4 5 2 5 8 8 9 6 2 4 6 6 4 7 9 8 6 7 5 3 4 2 4 5 5 4 5 4 4 2 1 2 3 3 4 6 9 6 3 4 6 4 4 6 6 7 9 9 9 10 11 9 10 10 10 10 10 11 12
17 15 12 10 9 9 10 10 4 2 7 4 2 3 1 3 6 3 5 4 2 3 0 1 2 1 2 2 2 5 2 1 2 7 9 9 4 2 4 3 4 5 7 10 10 8 4 3 4 4 4 5 6 6 6 6 5 3 2 1 2 3 2 4 4 6 5 4 6 6 2 4 7 8 8 8 9 9 10 11 11 10 10 10 10 11 11 12
18 14 12 10 8 8 11 7 1 2 7 3 3 1 2 5 5 4 6 4 3 3 2 3 1 1 2 1 3 3 1 3 1 5 8 7 2 3 2 1 5 6 7 7 8 8 3 5 3 6 6 6 7 7 5 5 5 2 1 5 5 5 2 6 7 6 4 4 7 8 3 4 7 9 9 8 9 11 11 12 13 12 11 11 10 11 12 11
18 15 11 9 7 8 8 2 1 6 8 1 1 2 4 7 5 4 5 3 4 3 1 3 2 2 2 2 4 3 3 5 3 3 6 5 2 2 2 4 4 4 3 5 6 6 2 4 4 5 6 7 8 7 4 3 5 1 3 10 9 7 3 5 8 7 3 2 6 7 5 2 3 7 10 10 11 13 12 13 14 13 12 12 11 11 12 12
19 14 11 9 8 7 5 2 4 8 4 2 1 4 6 10 5 5 5 3 5 3 1 2 1 1 1 1 2 4 1 6 5 5 5 5 3 4 4 4 3 2 3 4 5 3 4 6 5 6 7 7 8 6 4 3 3 2 2 10 10 7 3 4 7 5 1 2 3 6 6 3 2 6 11 13 12 12 12 13 13 13 13 14 13 13 13 13
19 14 11 8 7 7 5 5 7 6 2 2 5 8 9 7 5 6 6 0 5 1 1 3 2 1 1 0 3 4 2 3 4 6 5 5 5 4 4 3 2 2 5 6 4 4 6 10 9 10 8 7 8 3 6 4 2 3 2 7 9 8 3 3 5 4 1 2 3 5 6 5 2 5 10 13 12 12 14 14 14 15 15 15 15 15 15 14
18 14 12 9 8 7 5 5 5 4 2 4 8 8 6 3 6 5 5 2 3 1 1 2 2 3 3 3 4 4 2 2 1 4 6 6 6 6 4 1 1 2 6 8 6 3 3 5 6 10 10 8 7 2 4 5 3 6 6 1 5 6 1 2 5 3 2 4 4 7 9 5 2 6 7 9 10 11 12 12 13 14 16 15 15 15 15 14
17 14 12 9 7 4 5 5 5 4 3 6 8 4 3 5 4 6 2 3 1 1 2 1 1 2 4 5 6 5 4 3 2 5 6 5 6 6 2 1 4 4 5 7 8 2 4 2 2 7 9 6 2 4 3 3 6 9 6 2 5 4 1 2 3 2 4 5 3 7 10 6 1 4 5 6 6 7 8 9 11 13 15 16 15 15 15 14
15 13 12 10 6 3 4 3 3 3 6 7 4 2 5 4 5 4 3 3 1 1 1 1 1 1 3 4 3 5 4 3 4 6 6 4 6 7 4 4 5 5 5 6 7 7 8 7 5 7 8 4 4 5 5 6 9 8 4 1 3 4 3 3 3 3 6 4 3 6 8 6 3 2 5 5 4 4 5 7 11 14 17 17 16 15 15 14
13 12 12 11 9 8 7 3 2 6 7 5 3 5 5 4 4 1 3 2 2 1 1 1 2 2 2 4 2 3 2 3 4 5 4 3 5 4 4 4 2 4 5 4 5 6 9 10 9 8 8 8 9 6 5 6 7 6 5 3 1 4 5 5 5 5 4 2 3 4 6 4 2 2 4 3 1 0 2 4 8 12 16 17 17 16 15 14
12 11 11 12 11 11 10 7 7 8 5 3 5 5 5 5 1 2 1 1 1 3 3 2 3 3 2 4 3 3 2 2 4 4 2 2 3 3 3 3 4 5 3 1 2 5 6 9 11 9 7 10 11 7 6 6 6 7 7 6 2 5 4 4 5 4 3 4 5 5 5 3 2 4 4 3 3 3 3 3 5 9 12 15 16 17 16 15
11 10 10 11 12 11 10 9 8 7 5 5 6 4 5 5 1 1 1 1 2 2 2 3 3 1 3 2 3 3 3 3 3 4 4 5 5 4 4 4 5 6 5 3 3 4 4 5 11 11 7 12 14 9 7 7 7 8 8 7 6 6 2 2 3 2 2 4 8 6 4 2 2 5 5 4 4 4 4 3 3 6 9 10 12 16 16 16
11 8 9 9 10 9 9 8 8 7 6 6 5 5 5 3 1 2 1 2 2 3 2 2 4 4 4 3 2 2 2 2 4 5 4 4 2 1 1 3 4 5 6 4 1 3 7 0 8 8 4 11 16 11 9 9 7 7 8 8 8 7 4 4 4 3 5 4 5 6 4 2 4 5 5 3 3 5 6 6 3 3 7 7 9 12 14 15
8 5 5 5 5 5 7 7 7 8 6 5 6 5 2 1 1 0 2 3 3 5 5 4 4 4 4 5 4 4 2 1 5 6 3 2 1 2 1 3 1 3 4 3 1 2 6 0 6 5 5 10 12 9 10 9 5 6 7 9 7 4 6 6 5 2 5 7 4 6 5 4 5 5 3 2 3 6 7 7 6 2 7 7 7 9 11 12
7 3 2 2 2 4 6 7 7 8 6 6 5 2 0 1 1 1 2 4 3 5 7 4 1 2 2 4 4 6 5 4 5 5 3 4 2 3 2 1 1 3 4 3 1 2 4 2 4 2 7 8 4 6 9 7 4 6 7 8 7 3 6 5 5 3 4 6 4 4 5 5 5 3 1 3 5 8 9 8 6 4 6 8 8 8 9 10
7 4 2 3 1 3 5 8 9 7 5 5 3 0 1 2 1 1 2 4 4 4 6 3 1 2 2 2 3 5 5 5 5 5 3 4 2 2 1 1 2 1 4 5 3 2 4 4 3 1 4 7 5 6 7 6 7 6 3 6 7 5 6 6 4 4 4 5 3 4 5 4 2 2 2 4 8 9 10 8 6 4 5 7 8 9 9 8
4 4 4 3 4 2 6 9 7 6 5 5 4 3 2 2 2 1 2 3 4 5 4 2 1 1 1 2 1 4 5 4 4 4 3 3 2 2 1 1 1 1 2 5 4 1 4 3 1 1 1 6 7 7 6 7 9 6 2 7 7 4 4 4 3 3 4 5 4 4 5 2 4 4 5 6 7 8 8 8 6 4 3 5 7 8 8 8
3 4 3 4 5 2 8 7 6 6 5 4 3 2 2 2 3 2 2 3 4 3 2 2 1 2 0 1 1 2 3 4 3 4 2 2 2 2 1 1 1 1 1 4 4 2 2 3 2 1 3 5 7 5 4 5 8 7 6 8 7 5 3 3 5 5 5 4 4 5 4 3 4 4 5 6 6 7 7 7 5 4 3 3 5 6 8 9
4 3 3 5 3 5 7 5 6 5 5 4 2 2 3 1 2 2 2 3 4 2 2 3 3 2 1 1 1 2 3 4 4 4 3 3 3 1 2 1 3 3 3 4 3 1 2 4 3 0 3 4 3 2 4 4 7 8 7 7 7 6 5 5 6 7 6 6 5 5 3 3 4 3 4 5 5 6 7 6 5 5 5 4 4 4 5 7
4 3 3 5 2 5 5 6 5 3 5 4 2 3 2 1 3 3 3 4 4 3 3 3 3 2 2 2 1 1 3 2 3 4 3 2 2 1 3 2 4 5 5 4 2 2 2 3 2 2 3 0 3 1 3 4 6 5 3 4 6 7 7 7 6 5 6 6 5 6 4 2 4 3 3 4 5 6 6 5 4 5 6 6 5 4 4 5
3 3 2 3 2 3 7 6 5 4 6 3 1 2 3 2 4 3 3 6 5 4 4 4 3 2 1 1 1 3 3 1 1 2 1 2 2 4 3 2 3 5 4 3 1 1 1 4 3 2 1 2 3 3 3 3 6 4 2 4 5 6 6 6 3 2 6 5 5 6 5 2 3 2 2 3 5 5 5 5 5 5 6 6 6 5 3 4
4 3 1 1 2 4 7 6 5 7 6 4 3 6 5 4 5 5 5 6 5 4 6 5 3 2 0 0 2 3 2 2 2 2 1 2 3 4 3 2 3 4 2 3 2 1 2 3 3 3 2 3 4 5 4 4 5 4 1 3 3 5 6 6 2 2 6 5 3 6 3 2 2 1 1 4 5 6 6 5 6 7 7 7 7 6 4 4
4 3 3 1 2 5 5 4 4 6 6 6 7 7 6 5 5 6 6 5 4 4 5 3 2 2 2 2 3 3 3 4 2 2 2 2 4 3 3 1 3 2 3 4 4 3 3 2 2 4 4 5 5 2 2 2 1 2 1 2 2 5 8 7 5 6 7 4 3 5 0 4 3 3 3 5 6 7 7 7 8 9 9 8 7 6 6 5
3 2 2 3 4 4 4 2 4 5 4 5 6 6 7 7 4 4 6 5 5 5 4 2 3 4 4 5 5 5 5 4 2 3 4 3 4 3 2 1 2 2 4 2 3 4 4 1 1 4 3 3 5 4 2 2 2 2 1 2 2 1 5 7 7 7 4 2 3 1 6 8 6 5 4 5 6 7 8 9 9 8 7 7 7 7 7 6
2 2 2 1 2 4 4 3 4 5 2 3 4 3 6 8 5 6 6 4 4 6 5 3 4 6 6 6 6 4 5 4 4 4 4 3 2 3 3 2 2 4 2 2 2 4 4 2 1 1 1 3 7 8 6 6 5 2 2 4 5 3 2 6 6 3 1 3 4 3 8 9 7 5 4 6 7 7 9 9 8 6 5 6 7 8 9 8
2 2 2 2 2 3 3 2 2 3 3 4 3 3 5 8 7 7 6 4 4 6 6 5 7 8 6 5 6 4 5 5 5 5 4 3 4 4 5 4 4 4 5 4 1 3 4 2 1 3 5 6 8 9 6 6 6 5 5 6 7 7 4 1 1 2 2 3 2 4 6 8 8 5 5 8 7 7 10 9 8 8 7 7 8 9 9 10
2 2 1 1 3 4 4 4 4 5 6 4 3 5 6 7 8 7 4 5 7 8 7 6 7 8 7 6 6 4 5 5 3 4 5 4 4 4 4 4 4 5 6 3 2 2 3 0 1 2 6 6 5 4 4 4 5 6 6 6 7 8 7 5 4 3 1 2 5 8 8 9 8 6 7 8 6 8 9 9 10 10 9 9 9 9 10 11
3 3 2 3 5 4 5 5 5 6 5 3 4 6 6 7 7 5 4 7 8 8 9 9 7 6 6 6 7 6 5 4 3 3 6 6 5 5 5 3 2 4 5 3 2 1 3 1 1 3 4 4 2 1 2 3 3 5 5 5 5 5 6 6 5 4 2 4 7 9 9 8 6 6 7 6 6 8 9 10 11 10 10 10 10 11 11 11
4 3 3 5 4 2 3 4 4 5 5 5 5 4 5 6 4 3 5 8 9 7 8 10 9 5 5 7 8 7 4 4 4 2 5 5 4 3 4 2 3 5 5 3 3 3 3 2 3 4 4 4 4 2 0 1 3 2 3 4 4 3 3 5 4 3 1 3 7 8 6 6 6 6 6 6 7 8 9 10 10 9 10 10 11 11 11 11
5 2 2 5 3 1 3 3 4 5 4 2 1 1 3 2 1 2 5 7 9 7 5 8 8 5 7 9 8 5 2 3 1 2 2 2 2 2 2 1 1 4 3 3 3 2 3 3 4 5 5 4 6 5 3 4 6 4 2 2 3 3 3 3 2 2 2 1 3 4 4 7 8 6 6 8 9 9 9 8 8 8 9 10 11 11 10 11
Wind_Direction
1 360 360 355 350 350 350 352 353 354 354 353 351 351 352 355 355 354 355 353 348 346 350 355 352 350 349 345 339 334 340 336 303 257 228 273 284 245 244 184 179 175 168 161 162 164 165 180 175 181 199 207 230 294 346 329 301 271 247 225 164 159 152 132 154 118 117 138 143 153 160 143 139 139 136 145 134 124 122 113 101 97 100 107 116 127 135 142
1 0 360 352 348 350 352 356 356 359 0 359 359 358 359 360 1 4 1 359 351 349 356 354 350 348 346 344 338 337 345 325 274 248 232 293 294 225 195 173 179 172 165 167 175 177 178 175 171 186 206 217 173 320 317 311 285 308 289 249 108 106 101 78 89 79 124 144 145 160 164 151 144 144 155 153 136 140 133 125 118 111 113 116 123 133 138 146
3 359 357 351 348 351 356 360 1 5 7 6 9 6 3 2 1 358 351 356 356 357 360 351 351 351 348 344 338 342 342 296 258 224 308 311 270 196 173 169 175 170 167 177 183 185 190 172 173 193 217 231 154 252 286 324 298 357 304 279 67 84 103 88 82 65 109 141 147 162 164 156 148 149 162 149 140 149 140 136 135 129 132 131 133 139 143 150
7 2 358 353 349 354 1 5 6 6 9 10 10 9 8 7 2 355 349 350 353 3 4 356 356 352 352 345 339 346 319 263 229 51 346 317 225 179 165 162 169 170 170 184 186 195 197 170 180 209 236 230 175 241 263 9 322 334 327 19 69 124 134 100 82 71 123 149 152 156 160 157 154 155 157 151 145 149 147 144 142 142 142 139 141 145 148 152
9 6 2 357 356 0 4 7 6 2 4 5 4 6 5 4 4 360 355 354 356 3 2 2 357 351 351 342 344 349 283 244 80 21 343 336 168 168 159 158 167 170 176 182 182 197 191 174 188 215 239 237 203 237 88 50 312 309 26 50 63 187 146 105 85 90 148 153 150 160 163 152 152 161 159 145 103 117 140 139 137 145 145 143 145 147 150 152
11 10 8 4 2 2 2 3 0 356 357 354 355 356 353 353 352 346 347 352 354 353 355 357 353 350 348 342 349 312 262 337 49 5 0 71 149 156 153 158 167 172 182 182 182 194 188 184 198 211 230 239 256 292 11 52 270 278 93 82 67 66 103 120 104 101 162 157 158 167 155 148 157 155 154 94 50 86 123 128 134 142 145 143 144 148 152 151
13 12 10 8 4 1 358 355 351 351 348 345 344 341 340 339 333 328 328 328 331 337 342 345 346 347 348 349 336 250 238 57 46 12 46 114 136 148 150 151 161 169 180 185 187 191 187 193 206 225 247 245 292 333 342 258 245 275 9 88 86 89 117 136 105 94 169 159 162 163 147 158 166 149 147 86 74 118 123 124 133 139 144 144 146 150 150 150
13 12 10 7 4 359 353 349 345 343 341 338 334 330 330 328 323 316 307 307 313 317 324 334 340 344 350 350 275 222 111 54 44 60 117 126 130 147 150 148 157 163 181 190 191 195 192 201 212 232 258 283 338 334 308 242 221 256 299 76 117 160 157 154 116 106 144 147 151 157 157 158 157 145 138 96 99 126 125 128 135 141 148 147 149 149 147 151
12 12 10 6 3 357 347 343 341 340 338 333 327 325 325 323 321 308 293 294 297 303 314 324 333 340 352 332 264 208 82 47 68 122 142 140 139 152 157 163 173 174 186 194 201 209 201 208 213 234 298 330 316 322 305 258 224 270 320 37 253 219 192 177 132 104 120 133 152 158 156 140 142 150 130 109 118 127 128 135 141 146 152 153 151 148 149 152
13 12 9 6 1 352 345 342 342 340 335 330 326 324 324 324 320 308 291 278 279 289 300 317 335 338 342 298 262 186 88 62 94 128 156 157 153 160 170 178 179 187 192 192 210 217 219 250 238 254 296 296 295 337 346 290 4 341 350 51 307 261 205 173 128 95 42 91 176 167 154 139 149 177 143 132 137 134 136 141 147 152 154 156 152 149 153 152
12 12 10 6 359 352 346 344 343 339 336 332 328 326 327 326 320 312 289 265 267 280 298 320 333 340 318 277 271 114 110 86 89 129 159 166 167 168 180 179 179 194 193 194 212 216 239 306 288 243 276 309 289 312 67 325 18 131 147 100 66 79 157 150 129 157 233 82 263 157 142 145 159 195 139 142 148 141 141 145 152 155 152 156 154 149 155 153
10 11 9 7 1 355 350 348 346 343 341 335 331 332 329 328 326 320 288 249 249 271 308 322 332 347 301 265 345 91 122 107 99 133 152 167 180 186 190 182 188 202 203 212 211 208 241 296 255 251 322 329 282 209 105 152 142 181 184 140 98 90 99 137 136 179 185 119 317 146 149 162 173 171 131 144 153 146 144 148 157 158 153 157 156 152 156 154
8 7 8 8 3 359 356 355 352 349 347 342 340 337 332 333 335 338 270 206 235 277 320 326 346 336 282 244 78 104 134 111 116 138 151 165 177 188 195 195 202 213 219 232 212 196 218 232 262 280 319 292 288 80 133 162 178 200 211 211 127 105 90 129 139 165 153 112 326 218 175 164 173 160 140 155 159 154 154 152 159 162 157 158 158 158 157 156
5 4 7 7 3 2 1 359 356 354 354 353 351 348 344 341 348 53 102 130 233 317 333 338 357 305 266 87 95 151 127 115 154 155 163 164 158 155 175 192 202 211 217 230 196 194 205 208 261 273 275 280 334 134 186 181 198 194 98 261 186 129 95 127 147 168 154 152 294 230 178 155 172 158 148 166 169 165 162 156 162 165 162 160 159 164 161 160
4 3 4 4 4 3 3 3 0 359 359 0 2 7 359 346 26 99 96 72 53 7 360 345 351 279 225 102 119 189 123 177 163 163 173 170 165 148 153 172 185 195 202 207 167 177 197 205 243 258 226 233 214 196 204 192 203 185 75 263 200 127 112 133 156 179 160 158 213 220 189 140 158 155 153 171 178 177 170 161 164 166 166 162 161 168 165 161
3 1 1 3 3 1 4 6 4 3 1 3 8 13 7 6 78 100 80 58 18 39 16 330 313 270 267 97 136 172 167 160 105 139 172 182 189 127 134 150 156 167 185 194 188 170 189 207 238 281 258 200 217 226 235 225 197 190 214 245 151 133 148 144 154 178 157 157 184 220 223 119 135 150 158 171 181 186 179 167 166 167 168 165 164 170 167 162
1 0 0 359 360 360 3 5 5 6 2 4 9 13 16 36 92 93 77 51 15 69 314 294 282 271 19 110 168 153 101 81 75 123 159 183 172 130 138 145 145 154 162 165 189 191 184 206 224 242 233 219 239 251 261 273 270 200 225 123 129 160 150 152 164 170 167 174 180 186 197 77 123 150 161 172 183 191 185 173 172 170 169 169 170 171 169 166
359 359 358 356 357 356 359 4 7 9 4 4 5 6 16 47 87 77 72 60 53 194 231 257 262 261 115 127 185 55 38 64 107 129 143 158 155 147 150 146 147 154 160 161 184 195 185 204 224 230 223 210 239 235 188 301 317 296 299 76 188 164 129 141 154 166 175 180 175 168 162 111 145 157 167 176 183 194 189 176 176 173 171 174 177 175 171 170
355 356 356 353 354 352 356 2 8 15 8 5 358 341 350 55 117 170 213 199 218 243 247 24 280 310 88 103 42 28 45 106 137 141 143 152 161 171 159 147 159 168 176 170 178 194 195 202 216 235 225 204 232 252 298 331 326 304 325 7 110 99 102 138 138 154 164 162 169 168 171 195 178 168 173 177 185 197 190 179 180 176 176 181 183 180 174 177
352 352 352 351 350 348 353 356 8 21 12 8 352 305 282 333 183 163 208 216 306 352 336 357 323 314 67 85 35 28 130 153 163 142 147 164 172 176 164 164 179 192 204 184 170 182 204 216 217 225 227 218 225 301 329 325 339 334 113 66 97 112 123 149 135 143 152 151 165 160 171 205 201 184 178 174 184 198 192 184 184 182 184 187 187 181 175 181
350 348 348 350 346 343 348 352 3 20 17 14 343 305 9 4 356 18 345 240 90 354 296 334 315 295 327 349 345 327 183 163 152 139 149 170 189 188 166 184 198 195 204 189 163 158 206 233 220 207 246 275 219 160 323 321 345 317 171 140 137 129 129 133 135 144 153 141 143 160 185 209 212 201 186 177 187 200 196 191 187 185 189 190 188 184 177 179
348 344 345 346 342 341 341 346 353 13 16 16 338 11 44 16 345 317 307 278 113 81 274 280 276 278 276 262 295 282 256 170 147 147 156 177 203 208 162 196 217 188 172 190 184 170 210 235 202 166 237 253 222 226 285 305 313 295 232 144 67 94 113 133 143 146 161 146 144 177 191 212 214 204 196 192 195 201 200 199 194 189 191 192 190 185 179 176
347 341 340 342 343 339 335 342 344 1 5 341 313 27 51 11 339 264 253 279 114 135 242 249 265 230 142 148 145 231 247 184 158 148 164 196 201 212 195 203 221 185 174 200 211 205 215 221 155 146 204 228 224 222 251 279 270 263 289 87 142 178 148 151 159 150 157 156 155 178 188 213 212 200 203 208 208 204 202 206 205 200 197 196 193 186 182 178
347 338 336 338 340 337 333 339 335 346 353 306 249 29 46 342 336 241 234 276 129 130 144 22 318 314 56 79 158 233 244 94 212 140 165 210 183 170 225 207 216 205 193 208 220 233 229 92 101 166 196 227 236 224 227 254 247 209 281 320 171 211 130 115 175 159 144 152 155 160 190 233 212 200 200 207 212 208 202 205 207 208 204 203 200 189 187 185
345 335 331 331 337 341 330 327 165 328 330 276 204 216 258 325 324 235 241 258 125 112 151 161 219 100 68 123 183 249 208 147 206 128 166 219 204 171 194 175 238 221 189 200 223 242 225 101 144 204 200 219 240 239 219 242 258 170 57 349 346 312 15 122 180 188 172 187 165 159 188 231 206 203 199 190 205 207 201 203 204 204 202 205 207 196 192 192
342 333 327 325 332 336 323 304 118 319 306 199 131 244 263 315 305 216 243 234 112 70 146 167 193 119 119 187 168 235 222 149 97 121 175 220 263 262 214 169 230 249 178 190 226 248 209 136 180 219 218 219 236 248 212 225 258 176 8 345 338 303 284 151 189 210 211 166 156 176 208 227 203 216 205 187 201 206 200 206 207 204 201 202 207 202 199 197
340 329 320 320 326 330 324 320 330 315 299 98 348 276 295 307 270 188 238 220 100 37 296 128 96 107 105 128 186 241 186 113 134 162 184 213 211 245 245 185 199 224 166 198 228 222 200 190 189 220 234 225 234 239 178 197 263 179 326 336 333 302 269 197 215 228 205 126 162 209 228 244 237 221 202 189 198 205 203 210 213 210 206 202 204 205 203 201
337 325 313 312 319 321 316 309 313 312 327 354 306 298 310 295 201 192 254 287 78 334 267 91 81 160 181 198 240 255 66 106 185 155 158 209 212 237 249 224 244 165 161 218 225 133 193 216 207 216 229 229 239 227 131 165 218 124 76 354 331 305 274 223 242 249 211 200 208 193 209 236 195 177 187 185 194 203 203 208 210 212 211 204 202 204 204 202
335 320 307 303 307 309 304 294 292 288 291 304 307 314 307 208 177 230 259 67 64 249 109 96 155 173 198 205 216 227 195 223 261 115 155 198 216 248 275 284 260 160 167 230 257 99 162 229 226 223 229 237 241 179 149 210 186 123 116 102 281 285 295 237 256 269 245 249 237 173 190 237 160 153 176 183 197 208 208 209 207 209 213 210 204 202 203 200
332 313 299 297 305 310 296 281 258 246 269 303 319 320 204 180 214 251 207 76 18 131 112 229 178 154 225 220 191 190 208 206 103 133 173 191 200 221 282 336 241 227 185 220 256 257 140 135 252 232 236 252 229 123 150 186 129 122 126 217 256 253 233 244 250 281 251 237 204 161 188 237 232 138 156 173 198 206 204 210 207 207 213 214 210 203 202 199
330 307 290 286 287 269 269 258 187 237 295 316 324 214 203 212 250 265 89 70 307 146 162 220 86 161 245 258 205 166 189 181 152 178 184 179 194 199 206 210 217 230 213 206 226 220 188 189 207 217 226 219 151 130 123 134 135 127 114 48 280 237 206 216 193 223 246 218 111 137 183 227 254 104 128 162 180 179 186 200 202 206 211 213 212 206 203 201
327 300 282 275 270 251 248 247 249 285 303 316 261 225 239 240 237 322 71 164 239 15 16 34 17 332 259 258 240 162 187 167 162 205 214 198 200 193 209 225 221 227 225 200 193 197 198 204 200 195 202 196 186 167 136 149 158 142 126 120 286 247 210 207 196 201 229 176 109 142 171 215 250 100 106 137 140 185 232 224 209 207 208 209 210 207 203 202
325 296 278 270 265 253 251 258 268 280 295 284 252 240 256 258 245 42 42 215 25 29 354 319 332 329 245 220 176 148 201 150 153 198 215 240 231 192 205 257 290 279 273 266 223 208 190 189 191 184 180 198 208 194 163 167 174 170 153 138 204 252 231 226 221 209 205 162 133 146 173 217 210 112 85 70 56 25 350 300 247 221 210 206 208 208 203 201
325 294 277 270 263 256 254 253 254 265 268 256 252 242 249 260 74 86 255 12 24 356 307 302 307 230 203 209 134 160 210 144 151 194 185 205 221 196 186 198 236 264 273 259 263 256 236 187 181 182 168 186 206 222 201 178 179 183 159 153 211 258 275 268 260 249 237 161 132 148 193 215 156 117 90 73 64 42 21 352 286 231 211 206 208 208 204 200
329 297 282 274 265 257 248 242 239 241 245 253 257 250 251 260 125 199 255 31 345 317 308 281 276 220 171 149 144 200 265 137 166 200 201 206 206 145 150 147 189 238 259 258 302 274 269 270 148 172 165 184 202 220 207 188 185 179 167 177 213 251 269 284 300 316 293 264 149 168 214 78 111 137 111 63 48 46 28 21 20 199 195 201 213 210 203 199
341 304 285 265 258 254 236 224 212 211 232 263 258 246 253 359 27 157 24 348 315 321 302 240 240 242 173 154 159 172 228 192 181 195 184 183 110 91 83 63 109 241 272 282 331 286 264 173 120 170 198 196 213 220 203 203 183 157 187 198 184 231 277 292 290 270 274 267 186 172 197 130 132 159 128 34 31 43 25 23 38 121 175 188 207 209 204 199
347 294 260 182 226 265 232 204 188 197 230 263 260 268 356 78 37 40 22 322 302 307 291 254 181 293 227 171 158 158 182 181 191 207 172 173 159 102 152 90 60 288 313 298 280 22 298 243 122 190 203 185 213 224 202 209 195 169 201 197 160 199 273 277 270 262 261 248 193 174 201 167 153 173 130 18 21 28 19 22 39 80 162 184 193 199 203 202
338 270 209 135 353 296 207 181 183 204 242 258 242 245 232 163 102 358 328 314 293 268 274 284 44 327 286 228 143 144 189 188 181 203 182 184 177 85 206 156 99 309 314 283 250 42 321 260 138 129 196 160 161 205 193 188 211 216 199 175 170 200 228 225 249 270 262 255 225 191 205 183 115 92 73 20 17 17 11 13 25 64 141 177 182 187 194 199
299 237 176 98 351 315 169 170 190 223 245 243 215 167 196 186 139 237 275 288 279 265 272 324 15 291 296 310 69 148 209 223 180 191 199 194 160 94 299 303 92 71 330 286 272 347 325 290 167 101 151 162 175 198 197 182 201 226 196 181 192 203 213 220 239 255 265 276 273 216 193 141 45 44 43 25 17 12 7 6 14 47 106 163 169 176 178 182
273 248 153 64 352 174 159 178 215 231 226 236 245 160 166 209 185 199 258 257 262 278 304 342 301 256 185 289 278 163 215 241 214 211 207 179 157 126 109 312 299 343 338 272 273 289 294 288 267 136 135 184 191 195 221 194 189 208 198 185 192 183 177 219 230 229 237 250 262 243 202 103 55 37 30 20 11 13 12 2 8 44 75 121 146 166 168 172
273 254 134 52 356 164 165 213 220 221 223 224 242 189 172 251 238 189 186 230 253 279 315 314 302 312 326 245 233 154 204 222 213 223 208 188 208 175 100 14 299 291 269 248 250 282 277 282 296 221 185 204 186 195 270 222 193 213 214 196 199 194 188 210 223 227 230 229 251 258 222 106 66 27 19 17 9 21 23 0 4 47 61 79 111 138 155 170
247 253 105 47 10 177 206 232 198 210 236 213 198 198 170 234 250 225 184 205 227 224 233 270 278 292 301 287 344 185 219 211 198 225 223 192 227 41 74 19 295 279 278 276 296 39 323 282 275 257 254 13 88 136 246 210 192 218 221 187 209 215 207 210 216 240 247 225 231 253 239 113 60 19 11 24 23 29 33 13 15 53 59 63 74 81 125 158
279 311 95 48 344 221 237 229 182 211 228 182 107 209 184 209 229 224 203 205 212 217 217 226 248 260 285 314 267 226 225 224 203 229 206 159 112 53 30 342 281 258 268 293 300 117 270 266 235 227 306 37 92 141 191 195 199 215 127 133 208 230 220 213 204 268 272 240 220 245 238 141 76 29 4 33 47 48 46 25 15 43 60 60 58 55 84 130
320 304 171 2 316 229 237 232 206 216 207 179 212 211 199 229 237 230 226 214 206 223 227 222 227 236 209 279 253 236 231 237 206 178 203 187 116 63 16 338 260 254 297 346 344 176 248 268 231 210 223 216 195 166 173 202 209 218 136 129 211 231 223 230 215 234 267 269 246 253 245 108 108 147 90 67 70 65 60 51 35 43 49 47 52 55 60 90
304 254 201 205 212 220 246 271 259 232 201 195 220 218 208 213 220 237 244 222 206 236 242 215 199 218 196 192 219 207 224 258 231 165 198 184 127 92 24 352 253 263 33 16 335 299 269 266 233 237 232 221 222 197 184 207 210 272 329 101 190 214 212 225 224 215 233 240 242 260 186 115 140 140 104 72 68 64 63 64 55 48 45 41 46 54 56 63
311 254 220 190 190 220 246 285 278 253 215 208 218 216 222 218 184 197 231 220 197 217 236 199 184 207 201 206 222 203 195 238 243 185 200 189 143 113 56 16 224 119 77 34 299 286 267 237 263 263 244 210 221 237 231 147 151 239 283 70 67 203 210 228 238 232 233 251 253 167 118 138 147 134 111 77 69 65 58 55 53 49 48 49 50 55 62 63
304 294 315 301 214 225 217 209 240 248 236 234 226 197 219 226 183 168 206 220 191 198 216 210 206 220 212 210 232 216 183 203 210 190 198 195 149 121 124 173 163 128 149 231 258 278 260 222 257 317 96 151 186 196 183 141 133 143 78 67 60 65 193 231 244 264 333 270 257 115 124 139 134 129 112 80 71 60 50 49 52 55 55 58 62 65 70 72
315 328 15 354 277 241 227 229 279 274 249 235 243 219 219 225 208 192 197 196 189 201 212 206 211 229 235 225 234 217 183 199 200 185 187 187 186 175 163 173 162 164 211 226 215 288 273 256 18 75 120 156 170 169 157 133 123 106 76 64 59 57 53 304 312 5 313 257 203 143 141 126 116 119 90 74 70 59 53 52 53 56 59 62 67 71 71 72
331 319 76 322 283 290 304 315 315 283 251 233 240 228 225 229 219 211 202 191 195 203 219 231 220 220 229 230 235 219 194 211 203 175 190 198 201 214 201 181 167 182 219 214 131 288 282 320 46 123 147 161 165 153 150 144 130 112 88 71 64 59 53 48 42 35 35 112 123 137 130 102 89 87 82 78 73 64 60 60 57 54 57 61 64 68 69 70
342 335 9 303 277 279 290 289 281 268 240 215 230 222 226 236 223 210 209 215 211 194 204 237 241 217 214 215 226 226 206 229 262 193 197 210 208 220 236 238 196 195 218 208 147 224 269 176 173 208 175 160 170 168 176 187 157 120 102 87 79 67 58 55 43 33 66 113 123 134 132 112 85 78 87 86 73 67 62 62 62 56 56 61 64 65 64 64
328 319 334 300 284 260 266 258 256 267 241 215 222 214 219 226 214 216 221 225 237 220 203 230 236 203 192 207 225 236 205 215 266 227 196 225 237 220 223 245 242 221 216 204 185 214 245 188 183 233 238 189 188 216 313 254 235 176 122 93 86 72 50 54 49 17 11 133 143 151 153 138 118 104 99 83 70 64 55 54 56 53 53 56 60 61 58 57
322 264 248 284 283 219 254 249 230 246 250 240 254 254 243 223 153 258 241 216 229 239 234 246 240 201 196 210 221 235 177 157 250 80 138 242 270 226 211 195 249 253 240 210 205 222 245 217 193 235 259 204 184 214 275 281 262 235 147 61 57 77 78 75 79 52 14 43 165 163 133 123 129 131 105 78 63 51 45 42 38 44 53 55 57 59 57 58
Height
809 808 807 807 806 805 804 803 802 801 800 799 798 797 796 795 795 794 794 793 793 792 792 792 791 791 790 789 788 787 786 785 786 786 784 781 779 779 779 780 781 783 785 787 789 788 788 788 788 788 788 786 785 784 784 784 783 787 794 795 797 802 802 798 798 797 798 803 804 803 802 807 812 808 803 802 804 806 807 806 804 803 802 804 809 812 816 820
809 808 807 807 806 805 804 803 802 801 800 799 798 797 796 796 795 794 794 793 793 792 792 791 791 790 789 789 788 786 786 785 785 784 781 779 778 779 779 780 781 782 784 786 787 786 786 787 786 787 787 786 785 785 787 785 784 791 796 794 794 798 799 795 795 795 796 801 804 802 801 804 809 807 804 808 813 809 811 812 808 809 810 810 812 815 818 819
809 808 807 806 806 805 804 803 802 801 800 799 798 797 796 796 795 794 794 793 793 792 791 791 790 790 789 788 787 786 786 785 784 781 779 778 777 778 779 780 781 783 784 786 786 785 785 785 786 786 786 788 786 786 790 787 786 791 797 799 798 797 797 796 795 795 795 797 803 804 801 804 805 803 804 810 813 811 813 813 812 815 815 813 813 815 818 819
809 808 807 806 806 805 804 803 802 802 800 799 798 797 797 796 795 795 794 793 793 792 791 791 790 789 788 787 786 786 786 786 783 779 778 777 776 777 779 780 782 784 785 786 786 786 785 785 785 785 788 792 787 786 790 789 789 791 793 800 800 796 799 798 796 796 794 795 801 803 803 806 803 800 805 808 813 816 812 808 809 813 812 813 814 814 817 819
809 808 807 806 806 805 804 803 802 801 800 799 798 797 797 796 795 794 794 793 793 792 791 790 790 789 788 787 786 786 787 789 783 778 778 776 777 778 779 781 783 785 786 787 787 786 786 785 786 787 790 793 790 790 792 788 789 794 793 797 798 795 800 800 796 796 794 795 801 804 805 805 802 803 806 807 814 815 807 802 804 806 808 810 812 814 816 818
809 808 807 806 805 805 804 803 802 801 800 799 798 797 796 796 795 794 793 793 792 792 791 790 790 788 788 786 786 786 787 790 782 778 779 777 778 779 780 782 783 785 787 787 786 786 786 785 788 791 792 792 793 793 792 788 788 797 796 794 797 797 801 801 797 798 795 798 804 803 801 800 805 809 806 806 813 808 800 799 801 804 806 809 811 814 815 817
809 808 807 806 805 805 804 803 802 801 800 799 798 797 796 795 794 794 793 792 792 791 791 790 789 788 787 785 786 784 782 784 781 779 779 778 780 780 781 783 784 787 787 786 785 785 786 787 790 791 791 793 793 793 792 789 788 797 799 796 798 799 800 800 798 799 796 800 802 798 799 802 809 811 806 808 809 803 799 798 800 804 806 809 812 813 815 817
809 808 807 806 805 805 803 803 801 800 800 798 797 796 795 795 794 793 792 792 791 790 790 789 789 788 787 786 785 781 781 783 781 781 780 780 781 781 784 785 786 787 786 786 784 783 785 789 790 788 793 794 791 792 791 791 794 798 799 798 799 799 799 799 800 801 799 801 800 799 804 806 806 806 809 810 806 802 800 800 802 805 808 810 812 813 815 816
809 808 807 806 805 804 803 802 801 800 799 797 796 795 794 793 793 792 792 791 791 790 790 789 789 788 787 786 782 782 785 783 781 781 781 782 782 783 785 785 787 787 786 786 784 784 785 787 787 785 792 792 788 791 790 796 802 799 797 799 800 800 799 799 803 805 804 802 802 805 809 807 803 804 811 810 804 802 801 803 805 807 811 811 812 814 815 816
809 808 807 806 805 804 803 802 801 800 798 797 795 794 793 792 791 791 790 791 790 790 789 789 789 787 787 786 782 785 786 783 783 783 782 783 783 784 785 785 787 786 786 786 785 784 784 784 783 780 787 789 788 791 791 796 799 795 796 799 801 801 799 801 808 810 807 806 805 808 812 808 803 808 816 810 802 802 803 807 808 809 812 812 812 813 815 817
809 808 807 806 805 804 803 802 801 799 798 796 794 793 792 791 790 790 789 790 789 789 789 788 788 787 787 785 782 785 785 783 784 783 783 784 784 785 785 786 786 786 786 785 786 785 784 784 780 781 789 789 788 792 792 792 792 793 797 801 803 803 804 806 812 813 811 811 806 806 811 810 807 812 814 808 801 802 806 810 809 810 812 812 813 814 815 816
809 808 807 805 805 803 802 802 800 799 797 795 794 792 791 790 789 789 789 789 789 789 788 788 788 787 787 784 782 782 783 784 784 784 784 784 785 786 785 786 786 786 786 785 785 785 786 785 782 787 789 787 790 796 794 788 790 795 796 805 807 806 810 810 811 812 812 814 807 806 818 817 814 815 809 804 802 802 807 811 811 811 812 813 814 814 816 816
809 808 807 805 804 803 802 801 799 798 796 794 793 791 790 789 788 788 788 788 789 788 788 788 787 787 787 784 781 782 783 784 784 784 784 785 786 785 785 787 786 787 786 785 785 786 787 786 785 786 785 787 791 793 792 787 792 798 795 801 806 812 818 812 810 812 813 815 806 809 826 825 816 811 806 803 802 805 810 811 811 812 812 813 814 815 816 816
809 808 806 805 803 802 801 800 799 796 795 793 792 791 790 789 788 788 788 788 788 788 788 788 787 788 786 783 782 783 783 783 784 784 784 785 785 785 786 786 787 787 787 786 786 786 787 786 786 785 783 786 787 787 791 792 794 796 802 804 800 814 825 814 810 811 814 815 805 813 830 828 818 809 806 804 802 805 810 810 810 812 812 813 814 816 817 816
809 807 806 805 803 802 801 799 798 795 794 793 791 791 789 789 788 787 788 788 788 788 788 787 787 787 784 783 782 782 783 783 783 784 784 785 784 784 785 786 787 787 788 787 787 787 786 786 787 787 786 783 786 792 795 796 793 793 812 816 797 809 827 817 811 810 813 814 805 815 828 823 816 809 805 804 803 806 809 809 809 811 812 813 814 815 816 816
808 807 805 804 803 801 800 799 797 795 794 792 791 791 790 789 788 788 788 788 788 788 788 788 788 786 786 785 782 781 782 781 782 783 784 784 783 783 785 787 787 787 788 787 787 786 785 786 785 785 786 787 791 794 795 798 796 791 802 809 799 810 827 823 816 809 809 813 810 815 822 820 814 807 805 804 805 807 808 809 809 810 812 812 814 814 815 816
808 806 805 804 802 801 800 798 797 795 794 793 792 791 790 789 788 789 788 788 789 788 788 789 786 786 785 782 782 782 780 780 782 782 783 784 783 784 785 786 786 787 787 786 788 786 785 786 786 787 787 790 791 789 807 818 810 798 791 797 800 805 819 825 824 815 808 813 815 815 819 820 814 807 807 806 806 809 809 810 809 810 811 812 813 814 815 816
807 806 805 803 802 801 800 798 797 795 794 793 791 791 790 789 789 789 789 789 789 788 790 788 786 791 790 784 783 782 779 780 782 782 783 784 784 784 783 783 784 786 787 788 788 786 787 786 787 793 790 793 792 791 820 832 816 808 799 796 800 799 811 820 822 818 811 815 818 820 824 822 814 809 809 807 806 809 809 809 809 809 811 812 812 813 814 816
807 805 804 803 802 801 799 798 797 796 795 793 792 791 790 789 789 789 790 789 789 789 791 787 785 792 792 784 779 779 779 780 782 781 783 783 784 784 782 783 783 785 790 792 792 787 787 790 793 800 798 797 795 792 808 811 800 802 798 794 801 808 816 812 812 813 810 818 822 822 827 824 817 812 810 808 807 810 810 809 810 810 811 812 812 812 814 816
806 805 803 802 801 800 799 798 797 796 795 793 792 791 791 791 790 790 788 786 785 785 786 784 782 784 783 780 778 779 780 780 780 780 782 783 782 783 782 783 784 787 789 790 793 786 785 797 800 798 797 794 793 791 794 793 789 792 793 796 802 814 820 809 810 813 809 821 827 823 827 824 818 813 809 809 809 810 811 811 812 812 812 812 811 812 813 815
805 805 803 802 801 799 799 798 797 796 795 794 792 791 792 793 794 794 789 784 781 781 783 781 780 782 780 779 779 778 779 780 779 778 782 782 780 784 784 784 789 792 787 785 788 786 789 801 797 791 792 790 790 791 791 792 792 791 793 800 801 805 813 809 812 815 810 822 830 825 829 827 819 815 810 809 812 812 810 811 813 812 812 811 810 812 812 813
805 804 802 801 800 799 798 797 796 796 795 794 792 791 792 793 795 794 792 789 783 780 782 781 781 781 778 778 779 777 780 782 782 780 780 780 781 785 786 785 791 790 786 788 791 795 801 799 790 787 788 788 790 791 794 795 794 793 790 800 809 804 807 812 813 816 815 823 832 830 832 830 819 814 811 808 809 809 806 807 809 810 811 811 810 811 811 812
805 802 801 801 799 799 798 796 796 795 795 794 792 791 792 793 793 791 792 793 788 782 780 781 782 780 778 779 779 778 781 783 785 782 778 780 782 783 785 787 789 788 790 793 794 800 803 793 784 785 787 791 793 793 797 799 795 793 789 805 824 814 813 823 816 812 813 816 824 828 831 828 818 815 812 808 807 805 805 805 806 807 809 810 808 808 810 812
804 801 801 800 798 798 796 796 796 794 795 793 792 792 792 792 792 791 791 790 790 784 779 780 779 779 780 779 778 779 781 781 781 781 777 779 781 782 784 786 789 792 792 790 790 794 794 786 781 786 789 791 795 794 798 801 796 793 793 805 816 806 808 821 814 808 813 817 818 823 834 829 817 819 817 809 807 806 806 807 807 807 806 806 806 806 808 809
802 801 800 799 798 797 795 796 794 794 794 792 792 792 791 792 790 791 792 791 793 787 779 780 779 778 778 778 779 777 779 780 778 777 775 776 779 783 785 784 788 793 791 790 793 793 789 784 784 789 791 790 795 794 794 799 799 798 797 796 799 796 798 811 814 813 822 828 819 822 845 840 816 817 819 812 810 809 807 808 809 808 807 808 807 806 806 807
801 800 799 798 798 796 795 794 792 794 792 790 792 791 790 791 788 791 792 792 796 792 785 783 782 782 778 778 777 775 783 785 776 774 776 776 776 779 787 786 786 790 789 790 794 791 786 784 785 790 792 792 795 793 789 793 802 812 807 794 795 795 795 805 810 812 820 826 817 817 840 845 827 819 817 813 813 811 808 808 807 806 807 808 807 806 806 806
800 798 798 797 796 796 794 792 793 792 790 790 791 789 790 789 787 791 793 800 804 796 789 784 782 783 779 777 774 780 794 788 777 776 775 777 776 776 786 789 788 790 785 791 799 793 786 789 791 791 792 794 795 793 788 788 802 816 808 799 800 796 796 802 802 805 811 815 817 814 820 834 834 821 811 811 814 812 810 810 807 804 804 805 805 804 804 804
799 797 796 796 795 795 794 793 793 790 790 791 789 789 790 787 788 790 797 817 814 792 786 783 779 779 776 775 775 780 787 781 784 785 773 776 779 777 787 787 786 789 784 793 803 791 784 790 793 791 794 795 790 786 785 788 802 809 803 803 807 799 797 799 799 800 800 809 822 815 810 824 828 815 805 807 812 813 811 809 807 804 801 800 801 801 801 802
798 796 795 795 794 794 793 793 792 790 790 790 788 790 787 786 790 789 798 819 809 785 784 783 779 780 777 778 780 780 779 778 786 784 773 778 778 777 786 783 783 789 786 789 794 787 783 784 784 787 792 790 783 780 782 787 797 800 798 803 805 799 796 800 804 801 801 814 818 808 807 817 822 816 808 809 812 809 807 803 802 802 798 797 796 797 798 799
796 794 794 793 793 793 792 792 790 790 790 788 789 788 786 789 792 799 813 817 802 787 783 781 781 783 781 783 784 781 781 781 780 779 778 780 777 777 780 778 780 787 787 787 788 784 781 780 779 782 785 781 778 781 783 785 790 794 799 805 806 800 800 804 803 802 815 821 807 798 801 807 819 818 807 807 804 798 801 801 800 799 797 795 793 793 795 795
794 793 792 792 792 792 791 790 788 789 789 788 789 786 788 791 790 807 821 808 795 790 783 783 785 782 783 787 787 782 783 782 779 782 785 782 782 783 784 785 786 789 791 790 787 782 781 785 784 779 776 776 782 787 786 786 789 796 805 814 820 814 807 812 810 814 827 821 802 796 796 804 821 816 799 796 790 785 792 796 795 796 795 793 791 790 790 791
792 791 790 790 790 790 790 788 787 789 788 787 788 785 791 799 799 807 809 797 798 795 786 788 787 783 786 788 786 784 784 784 781 783 785 784 786 785 786 788 788 795 799 790 787 785 782 782 779 777 775 774 784 792 795 794 792 801 811 822 843 838 822 824 822 819 825 817 801 796 800 810 811 797 788 789 785 781 783 783 784 787 788 788 788 787 787 788
790 789 788 788 788 788 788 788 787 788 787 786 787 785 792 809 812 806 798 796 800 792 785 789 786 784 789 787 787 785 784 786 784 783 784 784 787 784 783 783 781 793 797 789 788 788 784 780 775 781 782 774 778 789 799 803 799 805 812 826 849 845 833 839 827 812 818 815 800 794 803 811 801 788 785 785 783 781 778 778 778 777 780 783 783 783 784 785
788 787 787 786 786 786 786 786 786 786 786 786 787 789 801 814 811 801 797 794 791 786 785 788 785 786 788 787 786 784 786 789 783 784 786 785 789 787 784 784 783 786 789 788 789 786 791 792 779 780 782 774 775 778 782 790 796 800 801 814 833 829 832 847 836 826 827 812 800 805 806 803 801 795 785 779 779 777 776 777 775 774 776 779 780 781 782 783
786 785 785 784 785 785 784 785 785 785 786 785 787 795 807 810 802 797 797 791 788 787 785 784 785 788 788 788 786 782 785 790 784 784 787 784 787 787 784 784 783 782 786 793 792 785 792 792 774 770 772 770 774 770 764 779 795 795 793 807 821 812 812 824 822 825 830 814 803 809 800 787 790 790 778 777 778 776 778 777 775 778 778 780 784 782 781 782
785 784 784 784 784 783 783 783 783 784 784 785 792 799 800 798 795 794 793 789 790 790 787 786 786 788 789 788 788 785 783 785 785 786 787 785 785 786 785 783 781 781 783 790 793 790 796 792 774 772 773 767 769 767 761 774 790 796 800 804 804 795 797 813 817 814 828 832 808 793 792 787 790 791 781 780 782 779 781 780 778 781 781 784 788 784 782 782
784 783 783 782 783 783 782 782 782 783 782 785 796 799 792 790 789 788 788 788 788 788 789 791 789 789 791 789 788 787 783 784 786 786 788 789 787 786 786 783 780 780 779 782 788 788 793 793 778 774 779 770 764 766 766 766 775 795 805 795 790 795 797 812 827 825 834 840 807 784 793 796 800 805 792 784 788 787 784 782 781 781 783 786 787 785 784 783
784 783 782 782 783 782 780 782 782 781 781 787 797 797 791 788 786 785 786 786 787 788 789 791 789 788 790 789 787 785 784 787 787 785 787 790 789 786 785 783 781 779 776 778 784 781 785 795 784 771 777 775 766 773 780 773 769 780 786 780 788 810 813 811 825 836 840 836 813 792 790 790 796 805 800 793 795 794 789 786 783 782 783 783 784 785 785 785
783 782 782 781 781 780 780 782 780 779 784 792 797 795 790 787 784 782 783 784 786 788 788 788 788 787 787 788 788 785 786 787 785 785 788 790 791 786 783 783 782 779 776 776 782 779 779 795 796 776 772 777 775 780 790 788 778 775 778 779 784 796 806 808 813 823 832 837 829 807 795 800 801 798 799 799 797 797 796 791 786 783 782 780 781 783 785 788
782 782 782 780 780 781 780 780 780 782 789 791 790 789 788 786 783 779 779 782 784 785 787 787 786 788 787 786 786 785 786 786 783 784 787 787 790 788 782 783 783 780 777 776 779 779 778 791 800 786 775 781 784 782 787 788 785 785 787 789 790 789 794 803 804 803 811 829 833 816 811 817 807 795 799 800 796 796 797 794 788 783 781 779 780 781 783 787
783 784 782 779 780 780 780 782 783 783 787 787 786 787 787 785 782 780 778 780 781 780 782 785 785 786 787 786 786 784 785 786 783 784 786 784 787 790 784 782 784 780 779 780 778 780 783 787 794 796 789 788 786 778 778 780 779 782 784 784 788 790 796 810 815 799 791 805 814 810 817 819 803 795 799 797 796 796 795 794 789 783 782 781 780 780 782 785
785 786 782 780 781 780 781 784 782 782 784 784 783 783 784 784 783 781 779 779 781 779 779 782 784 785 785 785 785 784 784 786 786 785 785 784 783 786 783 781 782 780 780 783 778 777 783 785 793 804 796 786 783 778 775 775 773 774 776 778 781 783 789 808 823 811 792 791 793 793 808 814 801 796 797 795 795 795 794 794 790 785 785 784 783 783 782 785
786 785 780 779 780 779 783 786 784 784 783 779 778 779 780 782 782 781 780 780 781 780 780 782 783 783 785 784 784 785 784 787 789 786 786 786 783 783 781 780 781 779 779 783 780 777 783 787 794 802 796 784 780 777 774 772 774 778 778 781 785 783 782 789 800 804 796 791 791 796 811 818 807 798 797 796 795 795 795 795 791 789 788 787 788 787 786 786
788 784 779 779 779 779 784 786 785 784 781 778 781 781 779 780 780 780 781 779 778 779 781 782 781 782 783 782 783 784 785 790 792 786 785 787 784 781 780 779 781 779 779 783 781 780 786 791 794 804 815 813 798 792 792 782 778 783 783 785 786 782 782 784 785 794 800 794 790 798 814 819 808 798 797 796 795 796 796 795 794 793 793 791 791 790 789 789
788 785 780 778 777 779 781 779 777 779 780 782 785 782 780 780 777 777 778 777 775 777 779 780 778 779 781 782 784 784 783 787 790 787 786 785 783 781 779 780 780 777 779 782 778 778 784 791 796 806 821 827 817 813 811 796 788 790 786 785 786 781 785 789 788 796 805 797 787 794 810 815 805 799 799 797 797 798 797 796 796 797 798 797 794 793 792 791
791 789 785 779 775 777 778 775 775 778 779 783 785 781 781 781 777 774 776 777 776 775 777 778 777 779 782 783 786 786 784 783 785 787 787 785 783 782 780 780 779 778 782 783 778 779 784 789 796 802 806 811 813 811 802 795 801 804 793 786 786 782 782 785 788 793 796 794 792 793 800 809 806 802 802 800 799 801 800 800 801 802 801 799 797 796 795 795
793 792 790 788 784 780 779 777 777 779 778 781 783 781 780 780 778 777 777 777 775 775 777 778 778 782 785 784 787 788 786 784 784 786 787 785 783 782 780 780 779 780 784 783 777 779 788 791 793 797 800 802 805 802 791 790 801 803 794 789 786 782 782 785 789 792 790 795 802 795 792 802 806 802 802 803 802 804 804 804 804 803 801 800 799 799 798 798
793 793 791 794 794 787 784 782 781 781 780 780 781 781 781 780 779 780 778 776 774 774 778 782 781 780 780 781 785 788 788 789 789 787 788 787 785 783 782 780 779 780 782 780 777 779 787 792 790 795 804 803 799 795 788 786 793 794 792 791 787 785 786 787 789 789 787 795 804 798 792 798 802 801 803 805 804 806 808 807 804 803 801 801 801 801 801 801
794 793 790 792 794 789 786 785 784 784 782 781 782 781 781 781 779 776 774 776 779 775 776 783 782 777 776 777 782 788 790 791 793 791 788 787 787 785 786 785 780 778 777 779 780 780 787 794 792 795 804 802 795 792 789 786 789 790 791 790 789 788 788 788 789 786 785 790 794 793 795 801 804 804 806 805 804 806 808 807 806 806 806 804 804 804 804 804
800 800 797 795 792 788 787 785 786 786 783 783 785 780 778 779 779 775 772 776 780 777 776 781 779 774 776 778 781 785 784 783 787 788 786 788 789 786 786 785 781 778 778 780 782 782 788 797 795 792 800 804 797 793 791 788 788 790 792 790 789 791 790 790 791 788 788 792 792 792 800 808 809 807 807 805 805 808 810 810 810 810 809 808 808 808 808 808
807 806 805 803 795 789 788 786 785 788 785 782 782 779 778 779 777 777 775 771 772 774 774 776 774 773 777 780 781 780 776 775 779 779 778 782 783 781 782 781 780 782 782 782 784 784 787 795 795 794 803 804 797 795 794 789 787 791 794 793 791 793 793 792 793 792 792 795 796 797 802 808 809 808 807 807 809 813 816 814 813 813 812 812 812 813 813 812
810 807 806 805 798 790 788 786 785 789 785 779 779 779 779 778 776 779 779 771 767 769 769 769 770 773 779 783 781 775 770 771 773 772 772 775 774 774 777 778 778 781 782 783 786 785 787 794 795 797 804 800 793 794 794 793 799 803 799 795 794 793 794 794 794 794 792 793 797 800 801 803 806 807 809 814 817 820 821 819 818 816 815 816 816 816 816 816